Вернуться в каталог

IRIDIUM 150

АктивенСвязьPO
NORAD 43257·PAYLOAD·🇺🇸 United States

Запущен Mar 30, 2018 с Vandenberg Space Force Base

Loading…

Ближайшие Пролёты (ближайшие 24 часа)

TLE

СвежийSource: CelesTrak SupGP

Эпоха: Sep 14, 2026, 21:24 UTC

1 43257C 18030J   26257.89201389  .00002773  00000+0  99139-3 0  2574
2 43257  86.3913 252.9421 0002342  89.3775  22.0183 14.34215275    19

Отслеживайте IRIDIUM 150 в реальном времени с AllMySat

Download on the App Store